Вернуться в каталог

CZ-6A DEB

АктивенSSO
NORAD 54952·DEBRIS·🇨🇳 China

Запущен Nov 11, 2022 с Taiyuan Satellite Launch Center

Loading…

Ближайшие Пролёты (ближайшие 24 часа)

TLE

СвежийSource: Space-Track

Эпоха: Sep 14, 2026, 05:19 UTC

1 54952U 22151SR  26257.22156346  .00000333  00000-0  26119-3 0  9998
2 54952  98.9566 233.4684 0112789 187.5831 172.3630 13.95788926195220

Отслеживайте CZ-6A DEB в реальном времени с AllMySat

Download on the App Store